Location: Chimay
(50.0486°N, 4.3171°E)
Time: 15:19:58
(UTC+00:00)

Cosmos 44 - Pass Details

Date: 08 August 2020
Orbit: 583 x 779 km, 65.1° (Epoch: 18 September)

Event Time Altitude Azimuth Distance (km) Brightness Sun altitude
Rises 22:54:14 0° 317° (NW) 3,035 7.6 -23.1°
Reaches altitude 10° 22:56:34 10° 311° (NW) 2,148 6.5 -23.2°
Maximum altitude 23:01:16 48° 238° (WSW) 935 3.7 -23.4°
Enters shadow 23:01:31 48° 229° (SW) 942 3.7 -23.4°
